AA9VI-10 Weather Reports


Display with metric or nautical units.
time (UTC)temp
F
wind
direction
speed
MPH
gust
MPH
rain 1hr
in
rain 24hr
in
rain mn
in
humidity
%
barometer
mb
20260505075016 57 0 1.0 2.0 0.00 0.01 0.00 42 1003.4
20260505074016 57 0 2.0 6.0 0.00 0.01 0.00 41 1003.3
20260505073016 58 0.0 2.0 0.00 0.01 0.00 41 1003.5
20260505072016 58 0 1.0 4.0 0.00 0.01 0.00 39 1003.5
20260505071016 58 0 1.0 3.0 0.00 0.01 0.00 40 1003.3
20260505070016 58 315 1.0 2.0 0.00 0.01 0.00 40 1002.9
20260505065015 58 338 1.0 5.0 0.00 0.01 0.00 39 1002.7
20260505064016 58 0.0 2.0 0.00 0.01 0.00 39 1002.6
20260505063015 59 0.0 2.0 0.00 0.01 0.00 40 1003.0
20260505062016 59 0 1.0 4.0 0.00 0.01 0.00 38 1003.0
20260505061016 59 0 1.0 2.0 0.00 0.01 0.00 38 1002.7
20260505060016 60 0 1.0 3.0 0.00 0.01 0.00 37 1002.5
20260505055020 60 0 2.0 5.0 0.00 0.01 0.00 36 1002.6
20260505054016 60 0 1.0 3.0 0.00 0.01 0.00 36 1002.6
20260505053016 61 0 2.0 4.0 0.00 0.01 0.00 35 1002.3
20260505052016 61 0 2.0 4.0 0.00 0.01 0.00 35 1002.1
20260505051016 61 0 1.0 4.0 0.00 0.01 0.00 35 1001.9
20260505041016 63 0 1.0 3.0 0.00 0.01 0.01 44 1001.3
20260505040017 62 0 2.0 5.0 0.00 0.01 0.01 49 1001.2
20260505035017 61 0 1.0 2.0 0.00 0.01 0.01 60 1001.0
20260505034017 62 0.0 2.0 0.00 0.01 0.01 67 1000.7
20260505033016 62 0.0 2.0 0.00 0.01 0.01 67 1000.6
20260505032016 62 0.0 2.0 0.00 0.01 0.01 67 1000.4
20260505031016 62 0.0 3.0 0.00 0.01 0.01 68 1000.5
20260505030016 62 0 1.0 4.0 0.00 0.01 0.01 68 1000.6
20260505025017 63 0 2.0 6.0 0.00 0.01 0.01 68 1000.5
20260505024016 63 0 2.0 4.0 0.00 0.01 0.01 68 1000.3
20260505023016 63 0 2.0 4.0 0.00 0.01 0.01 67 999.9
20260505022016 64 0 1.0 9.0 0.00 0.01 0.01 66 999.6
20260505021016 64 0.0 0.0 0.00 0.01 0.01 66 999.1
20260505020016 64 0.0 0.0 0.00 0.01 0.01 66 999.0
20260505015017 64 0.0 0.0 0.00 0.01 0.01 65 998.8
20260505014016 64 0.0 0.0 0.00 0.01 0.01 67 998.6
20260505013016 64 0.0 0.0 0.00 0.01 0.01 69 998.5
20260505012016 64 0.0 0.0 0.00 0.01 0.01 70 998.4
20260505011016 66 0.0 0.0 0.00 0.01 0.01 67 998.4
20260505010017 66 0.0 0.0 0.00 0.01 0.01 64 998.3
20260505005017 66 0.0 0.0 0.00 0.01 0.01 62 998.0
20260505004016 67 0.0 0.0 0.00 0.01 0.01 59 997.5
20260505003016 67 0.0 0.0 0.00 0.01 0.01 57 997.0
20260505002016 67 0.0 0.0 0.00 0.01 0.01 58 997.1
20260505001016 67 0.0 0.0 0.00 0.01 0.01 59 996.9
20260505000016 67 0.0 0.0 0.00 0.01 0.01 59 997.0
20260504235016 68 0.0 0.0 0.00 0.01 0.01 57 997.1
20260504234016 68 0.0 0.0 0.01 0.01 0.01 55 996.8
20260504233016 67 0.0 0.0 0.01 0.01 0.01 56 996.8
20260504232016 67 0.0 0.0 0.01 0.01 0.01 61 997.0
20260504231016 67 0.0 0.0 0.01 0.01 0.01 60 997.2
20260504230016 66 0.0 0.0 0.01 0.01 0.01 61 997.9
20260504225016 68 0.0 0.0 0.01 0.01 0.01 60 998.1
20260504224016 75 0.0 3.0 0.00 0.00 0.00 42 998.5
20260504223016 76 0.0 3.0 0.00 0.00 0.00 37 997.4
20260504222016 76 270 1.0 3.0 0.00 0.00 0.00 34 997.3
20260504221016 78 315 1.0 5.0 0.00 0.00 0.00 36 997.5
20260504220016 78 203 3.0 7.0 0.00 0.00 0.00 33 997.6
20260504215016 78 225 4.0 12.0 0.00 0.00 0.00 34 997.7
20260504214016 78 248 4.0 10.0 0.00 0.00 0.00 33 997.7
20260504213016 78 203 4.0 9.0 0.00 0.00 0.00 32 997.8
20260504212016 79 203 5.0 12.0 0.00 0.00 0.00 30 998.1
20260504211017 80 225 5.0 15.0 0.00 0.00 0.00 28 998.1
20260504210017 82 248 4.0 12.0 0.00 0.00 0.00 26 998.3
20260504205016 81 270 3.0 8.0 0.00 0.00 0.00 26 998.4
20260504204016 81 203 5.0 13.0 0.00 0.00 0.00 24 998.3
20260504203016 81 180 4.0 10.0 0.00 0.00 0.00 24 998.4
20260504202016 80 248 2.0 8.0 0.00 0.00 0.00 27 998.6
20260504201016 80 203 3.0 7.0 0.00 0.00 0.00 24 998.7
20260504200016 80 270 3.0 10.0 0.00 0.00 0.00 25 998.9
20260504195017 80 338 3.0 10.0 0.00 0.00 0.00 25 999.1
20260504194016 80 225 3.0 10.0 0.00 0.00 0.00 27 999.3
20260504193016 79 225 6.0 17.0 0.00 0.00 0.00 25 999.4
20260504192016 79 225 3.0 9.0 0.00 0.00 0.00 32 999.6
20260504191016 79 180 4.0 11.0 0.00 0.00 0.00 31 999.6
20260504190016 78 225 5.0 12.0 0.00 0.00 0.00 32 999.7
20260504185016 77 203 6.0 12.0 0.00 0.00 0.00 30 999.7
20260504184017 77 180 5.0 16.0 0.00 0.00 0.00 33 999.8
20260504183016 77 203 5.0 10.0 0.00 0.00 0.00 31 999.9
20260504182017 77 203 5.0 10.0 0.00 0.00 0.00 32 1000.0
20260504181016 76 203 5.0 15.0 0.00 0.00 0.00 31 1000.1
20260504180017 76 203 6.0 15.0 0.00 0.00 0.00 32 1000.1
20260504175016 76 248 5.0 16.0 0.00 0.00 0.00 30 1000.3
20260504174017 76 248 4.0 10.0 0.00 0.00 0.00 33 1000.5
20260504173016 75 225 5.0 14.0 0.00 0.00 0.00 34 1000.6
20260504172016 74 203 4.0 8.0 0.00 0.00 0.00 34 1000.8
20260504171016 74 180 6.0 13.0 0.00 0.00 0.00 34 1000.9
20260504151017 67 180 3.0 11.0 0.00 0.00 0.00 45 1002.5
20260504141016 61 0 4.0 13.0 0.00 0.00 0.00 55 1003.1
20260504081016 50 225 1.0 3.0 0.00 0.00 0.00 72 1003.7